Latest Coastal Weather Observations for Kingfish B

IDV60701

Issued at 3:01 am EDT Sunday 1 March 2015 (issued every 10 minutes, with the page automatically refreshed every 10 minutes)

About coastal observations | Map of coastal stations | Coastal observations for VIC | Marine services | Other Formats
Station Details ID: 400139 Name: KINGFISH B (PLATFORM) Lat: -38.60 Lon: 148.19 Height: 31.4 m
Data from the previous 72 hours. | See also: Recent months for locations in Victoria
Date/Time
EDT
Temp

°C
Wind Pressure Rain
since 9am
mm
Weather Cloud Vis
km
Sea
Height
m
Swell
Dir
 
Speed
knots
Gust
knots
hPa Trend Height
m
Period
s
Dir
01/03:00am 19.6 SSW 9 10 1004.0 - - - - - - - - -
01/02:50am 19.6 S 10 12 1003.9 - - - - - - - - -
01/02:40am 19.7 SSW 12 15 1004.3 - - - - - - - - -
01/02:30am 19.9 SSW 16 19 1004.6 - - - - - - - - -
01/02:20am 20.0 SSW 19 23 1004.6 - - - - - - - - -
01/02:10am 20.2 SW 20 25 1004.5 - - - - - - - - -
01/02:00am 20.7 SW 23 28 1004.1 - - - - - - - - -
01/01:50am 22.1 SW 19 25 1003.9 - - - - - - - - -
01/01:40am 22.9 W 15 33 1003.6 - - - - - - - - -
01/01:30am 22.6 WNW 6 29 1002.6 - - - - - - - - -
01/01:20am 22.6 NNE 11 16 1001.6 - - - - - - - - -
01/01:10am 22.6 NNE 16 25 1001.4 - - - - - - - - -
01/01:00am 22.3 NNE 17 24 1001.4 - - - - - - - - -
01/12:50am 22.4 NNE 19 23 1000.9 - - - - - - - - -
01/12:40am 22.3 NNE 21 24 1000.4 - - - - - - - - -
01/12:30am 22.0 NNE 22 25 1000.1 - - - - - - - - -
01/12:20am 21.1 NE 25 29 1000.0 - - - - - - - - -
01/12:10am 21.9 NNE 25 28 1000.5 - - - - - - - - -
01/12:00am 21.8 NNE 23 25 1000.8 - - - - - - - - -
 
Date/Time
EDT
Temp

°C
Wind Pressure Rain
since 9am
mm
Weather Cloud Vis
km
Sea
Height
m
Swell
Dir
 
Speed
knots
Gust
knots
hPa Trend Height
m
Period
s
Dir
28/11:50pm 21.6 NNE 23 26 1000.9 - - - - - - - - -
28/11:40pm 21.3 NNE 22 26 1001.2 - - - - - - - - -
28/11:30pm 21.3 NNE 22 25 1001.5 - - - - - - - - -
28/11:20pm 21.4 NNE 22 25 1001.7 - - - - - - - - -
28/11:10pm 21.3 NNE 21 24 1001.9 - - - - - - - - -
28/11:00pm 21.3 NNE 21 24 1002.0 - - - - - - - - -
28/10:50pm 21.4 NNE 21 24 1002.2 - - - - - - - - -
28/10:40pm 21.5 NNE 20 23 1002.2 - - - - - - - - -
28/10:30pm 21.4 NE 20 23 1002.1 - - - - - - - - -
28/10:20pm 21.3 NE 20 23 1002.1 - - - - - - - - -
28/10:10pm 21.4 NE 16 20 1002.4 - - - - - - - - -
28/10:00pm 21.4 NE 16 17 1002.4 - - - - - - - - -
28/09:50pm 21.2 NE 16 17 1002.5 - - - - - - - - -
28/09:40pm 21.1 NE 17 18 1002.4 - - - - - - - - -
28/09:30pm 21.2 NE 15 17 1002.6 - - - - - - - - -
28/09:20pm 21.2 NE 14 15 1002.9 - - - - - - - - -
28/09:10pm 21.3 NE 9 12 1003.1 - - - - - - - - -
28/09:00pm 21.1 NE 10 11 1003.4 - - - - - - - - -
28/08:50pm 21.3 NE 8 10 1003.5 - - - - - - - - -
28/08:40pm 21.0 NE 8 10 1003.5 - - - - - - - - -
28/08:30pm 20.9 NE 9 11 1003.6 - - - - - - - - -
28/08:20pm 20.8 NE 6 8 1003.9 - - - - - - - - -
28/08:10pm 20.9 NNE 3 6 1004.4 - - - - - - - - -
28/08:00pm 20.8 CALM 0 1 1004.5 - - - - - - - - -
28/07:50pm 20.8 CALM 0 2 1004.4 - - - - - - - - -
28/07:40pm 20.9 NNE 1 4 1004.2 - - - - - - - - -
28/07:30pm 20.8 NE 3 4 1003.9 - - - - - - - - -
28/07:20pm 21.0 NNE 6 8 1004.0 - - - - - - - - -
28/07:10pm 20.9 CALM 0 3 1004.0 - - - - - - - - -
28/07:00pm 20.9 CALM 0 1 1004.1 - - - - - - - - -
28/06:50pm 20.9 CALM 0 1 1004.1 - - - - - - - - -
28/06:40pm 20.9 CALM 0 1 1004.3 - - - - - - - - -
28/06:20pm 21.6 - 2 5 1004.4 - - - - - - - - -
28/06:10pm 21.8 N 4 8 1004.3 - - - - - - - - -
28/06:00pm 22.1 N 1 4 1004.3 - - - - - - - - -
28/05:50pm 22.2 SW 1 4 1004.4 - - - - - - - - -
28/05:40pm 21.9 SW 3 5 1004.3 - - - - - - - - -
28/05:30pm 21.6 SW 4 5 1004.3 - - - - - - - - -
28/05:20pm 21.4 SW 4 5 1004.4 - - - - - - - - -
28/05:10pm 21.4 WSW 3 5 1004.7 - - - - - - - - -
28/05:00pm 21.4 WSW 3 4 1005.0 - - - - - - - - -
28/04:50pm 21.4 WSW 2 4 1005.1 - - - - - - - - -
28/04:40pm 21.8 W 3 5 1005.3 - - - - - - - - -
28/04:30pm 22.2 WNW 3 4 1005.4 - - - - - - - - -
28/04:20pm 22.4 WNW 3 4 1005.4 - - - - - - - - -
28/04:10pm 22.2 WNW 2 4 1005.2 - - - - - - - - -
28/04:00pm 22.0 NW 2 4 1005.2 - - - - - - - - -
28/03:50pm 21.6 NW 3 4 1005.1 - - - - - - - - -
28/03:40pm 21.5 NNW 4 5 1005.2 - - - - - - - - -
28/03:30pm 21.7 N 3 5 1005.1 - - - - - - - - -
28/03:20pm 21.5 - 2 3 1005.1 - - - - - - - - -
28/03:10pm 21.5 - 3 4 1005.2 - - - - - - - - -
28/03:00pm 21.7 N 4 4 1005.2 - - - - - - - - -
28/02:50pm 21.6 N 3 4 1005.3 - - - - - - - - -
28/02:40pm 21.4 N 4 5 1005.4 - - - - - - - - -
28/02:30pm 21.5 N 5 5 1005.5 - - - - - - - - -
28/02:20pm 21.3 N 5 6 1005.5 - - - - - - - - -
28/02:10pm 21.6 N 6 7 1005.6 - - - - - - - - -
28/02:00pm 21.9 - 6 7 1005.6 - - - - - - - - -
28/01:50pm 22.0 N 8 9 1005.7 - - - - - - - - -
28/01:40pm 22.1 N 8 9 1005.9 - - - - - - - - -
28/01:30pm 21.9 N 7 8 1006.0 - - - - - - - - -
28/01:20pm 21.6 N 6 8 1006.0 - - - - - - - - -
28/01:10pm 21.4 NNE 7 10 1006.1 - - - - - - - - -
28/01:00pm 21.1 NNE 9 10 1006.1 - - - - - - - - -
28/12:50pm 21.4 NNE 9 11 1006.3 - - - - - - - - -
28/12:40pm 21.2 NNE 9 12 1006.4 - - - - - - - - -
28/12:30pm 21.3 NNE 11 13 1006.4 - - - - - - - - -
28/12:20pm 20.9 N 10 12 1006.7 - - - - - - - - -
28/12:10pm 20.7 N 10 11 1007.0 - - - - - - - - -
28/12:00pm 20.5 N 10 12 1007.1 - - - - - - - - -
28/11:50am 20.6 N 10 12 1007.1 - - - - - - - - -
28/11:40am 20.8 N 11 13 1007.1 - - - - - - - - -
28/11:10am 20.6 NNE 11 14 1007.5 - - - - - - - - -
28/11:00am 20.6 NNE 13 15 1007.1 - - - - - - - - -
28/10:50am 20.8 NE 14 17 1006.9 - - - - - - - - -
28/10:40am 21.0 NE 15 18 1006.8 - - - - - - - - -
28/10:30am 21.0 NE 15 18 1006.7 - - - - - - - - -
28/10:20am 20.8 NE 15 18 1006.6 - - - - - - - - -
28/10:10am 20.4 NE 14 16 1006.8 - - - - - - - - -
28/10:00am 20.2 NE 14 16 1007.0 - - - - - - - - -
28/09:50am 20.2 NE 13 16 1007.2 - - - - - - - - -
28/09:40am 20.1 NNE 12 14 1007.4 - - - - - - - - -
28/09:30am 20.0 NE 11 13 1007.4 - - - - - - - - -
28/09:20am 20.0 NE 11 13 1007.4 - - - - - - - - -
28/09:10am 20.0 NE 10 12 1007.5 - - - - - - - - -
28/09:00am 19.7 NE 9 11 1007.6 - - - - - - - - -
28/08:50am 19.4 NE 7 9 1007.9 - - - - - - - - -
28/08:40am 19.1 NE 6 7 1008.1 - - - - - - - - -
28/08:30am 18.9 NE 6 8 1008.2 - - - - - - - - -
28/08:20am 18.9 NE 5 6 1008.2 - - - - - - - - -
28/08:10am 18.7 NE 5 7 1008.1 - - - - - - - - -
28/08:00am 18.6 ENE 4 6 1008.0 - - - - - - - - -
28/07:50am 18.6 ENE 4 6 1008.0 - - - - - - - - -
28/07:40am 18.5 ENE 5 6 1008.0 - - - - - - - - -
28/07:30am 18.5 ENE 4 7 1008.1 - - - - - - - - -
28/07:20am 18.4 E 3 4 1008.3 - - - - - - - - -
28/07:10am 18.4 ENE 2 3 1008.4 - - - - - - - - -
28/07:00am 18.3 ENE 3 4 1008.3 - - - - - - - - -
28/06:50am 18.2 E 2 3 1008.5 - - - - - - - - -
28/06:40am 18.2 E 2 4 1008.4 - - - - - - - - -
28/06:30am 18.1 E 1 3 1008.4 - - - - - - - - -
28/06:20am 18.1 CALM 0 2 1008.6 - - - - - - - - -
28/06:10am 18.0 CALM 0 1 1008.6 - - - - - - - - -
28/05:50am 18.0 CALM 0 1 1008.8 - - - - - - - - -
28/05:40am 18.0 CALM 0 1 1008.8 - - - - - - - - -
28/05:30am 18.1 CALM 0 1 1008.9 - - - - - - - - -
28/05:20am 18.1 CALM 0 0 1009.1 - - - - - - - - -
28/05:10am 18.2 CALM 0 2 1009.0 - - - - - - - - -
28/05:00am 18.2 ESE 1 2 1009.0 - - - - - - - - -
28/04:50am 18.2 SE 1 3 1009.1 - - - - - - - - -
28/04:40am 18.2 SE 1 3 1009.2 - - - - - - - - -
28/04:30am 18.2 SE 1 2 1009.4 - - - - - - - - -
28/04:20am 18.1 CALM 0 1 1009.5 - - - - - - - - -
28/04:10am 18.1 CALM 0 2 1009.6 - - - - - - - - -
28/04:00am 18.1 SE 1 3 1009.5 - - - - - - - - -
28/03:50am 18.1 SE 1 3 1009.7 - - - - - - - - -
28/03:40am 18.1 CALM 0 1 1009.8 - - - - - - - - -
28/03:30am 18.1 CALM 0 1 1009.9 - - - - - - - - -
28/03:20am 18.2 CALM 0 0 1010.0 - - - - - - - - -
28/03:10am 18.2 CALM 0 0 1010.2 - - - - - - - - -
28/03:00am 18.2 CALM 0 0 1010.3 - - - - - - - - -
28/02:50am 18.3 CALM 0 0 1010.4 - - - - - - - - -
28/02:40am 18.3 CALM 0 1 1010.5 - - - - - - - - -
28/02:30am 18.3 CALM 0 0 1010.6 - - - - - - - - -
28/02:20am 18.4 CALM 0 1 1010.7 - - - - - - - - -
28/02:10am 18.4 CALM 0 2 1010.8 - - - - - - - - -
28/02:00am 18.4 S 1 2 1010.8 - - - - - - - - -
28/01:50am 18.4 CALM 0 1 1010.8 - - - - - - - - -
28/01:40am 18.3 CALM 0 0 1010.8 - - - - - - - - -
28/01:30am 18.3 CALM 0 2 1010.8 - - - - - - - - -
28/01:20am 18.3 CALM 0 0 1010.9 - - - - - - - - -
28/01:10am 18.4 CALM 0 1 1011.0 - - - - - - - - -
28/01:00am 18.4 CALM 0 2 1011.0 - - - - - - - - -
28/12:50am 18.5 S 2 4 1011.1 - - - - - - - - -
28/12:40am 18.6 S 3 5 1011.2 - - - - - - - - -
28/12:30am 18.6 S 3 4 1011.1 - - - - - - - - -
28/12:20am 18.6 S 2 3 1011.1 - - - - - - - - -
28/12:10am 18.4 S 3 5 1011.1 - - - - - - - - -
28/12:00am 18.6 S 3 4 1011.0 - - - - - - - - -
 
Date/Time
EDT
Temp

°C
Wind Pressure Rain
since 9am
mm
Weather Cloud Vis
km
Sea
Height
m
Swell
Dir
 
Speed
knots
Gust
knots
hPa Trend Height
m
Period
s
Dir
27/11:50pm 18.7 S 4 6 1011.1 - - - - - - - - -
27/11:40pm 18.7 S 4 6 1011.2 - - - - - - - - -
27/11:30pm 18.7 S 4 5 1011.2 - - - - - - - - -
27/11:20pm 18.8 S 3 4 1011.3 - - - - - - - - -
27/11:10pm 18.8 S 2 3 1011.2 - - - - - - - - -
27/11:00pm 18.8 S 1 2 1011.1 - - - - - - - - -
27/10:50pm 18.8 S 1 2 1011.0 - - - - - - - - -
27/10:40pm 18.9 S 1 2 1010.9 - - - - - - - - -
27/10:30pm 18.9 CALM 0 2 1010.7 - - - - - - - - -
27/10:20pm 18.9 CALM 0 0 1010.6 - - - - - - - - -
27/10:10pm 18.8 CALM 0 0 1010.5 - - - - - - - - -
27/10:00pm 19.0 CALM 0 0 1010.3 - - - - - - - - -
27/09:50pm 18.9 CALM 0 0 1010.3 - - - - - - - - -
27/09:40pm 18.9 CALM 0 0 1010.2 - - - - - - - - -
27/09:30pm 18.9 CALM 0 0 1010.2 - - - - - - - - -
27/09:20pm 19.0 CALM 0 0 1010.2 - - - - - - - - -
27/09:10pm 19.0 CALM 0 0 1010.0 - - - - - - - - -
27/09:00pm 19.0 CALM 0 1 1009.7 - - - - - - - - -
27/08:50pm 19.0 CALM 0 1 1009.6 - - - - - - - - -
27/08:40pm 19.0 CALM 0 2 1009.6 - - - - - - - - -
27/08:30pm 19.0 CALM 0 2 1009.7 - - - - - - - - -
27/08:20pm 19.0 CALM 0 1 1009.7 - - - - - - - - -
27/08:10pm 19.1 CALM 0 2 1009.7 - - - - - - - - -
27/08:00pm 19.2 CALM 0 2 1009.8 - - - - - - - - -
27/07:50pm 19.2 CALM 0 2 1009.9 - - - - - - - - -
27/07:40pm 19.2 S 1 2 1010.0 - - - - - - - - -
27/07:30pm 19.2 S 1 3 1010.0 - - - - - - - - -
27/07:20pm 19.1 SSE 1 2 1009.9 - - - - - - - - -
27/07:10pm 19.1 SSE 1 4 1009.8 - - - - - - - - -
27/07:00pm 19.1 SSE 2 5 1009.8 - - - - - - - - -
27/06:50pm 19.0 SSE 3 5 1009.7 - - - - - - - - -
27/06:40pm 19.1 S 4 6 1009.8 - - - - - - - - -
27/06:30pm 19.2 S 4 6 1009.9 - - - - - - - - -
27/06:10pm 19.2 S 5 6 1009.8 - - - - - - - - -
27/06:00pm 19.4 S 5 7 1009.9 - - - - - - - - -
27/05:50pm 19.4 S 4 7 1009.9 - - - - - - - - -
27/05:40pm 19.5 S 3 5 1009.8 - - - - - - - - -
27/05:30pm 19.4 SSW 2 4 1009.7 - - - - - - - - -
27/05:20pm 19.3 SSW 2 3 1009.6 - - - - - - - - -
27/05:10pm 19.3 S 2 3 1009.6 - - - - - - - - -
27/05:00pm 19.2 S 2 3 1009.5 - - - - - - - - -
27/04:50pm 19.2 S 3 4 1009.6 - - - - - - - - -
27/04:40pm 19.5 S 3 5 1009.8 - - - - - - - - -
27/04:30pm 19.9 SSW 3 5 1010.0 - - - - - - - - -
27/04:20pm 20.3 SSW 2 3 1009.9 - - - - - - - - -
27/04:10pm 20.3 SSW 1 3 1009.9 - - - - - - - - -
27/04:00pm 20.2 SSW 1 2 1009.8 - - - - - - - - -
27/03:50pm 20.3 SSW 1 2 1009.9 - - - - - - - - -
27/03:40pm 20.7 CALM 0 1 1009.9 - - - - - - - - -
27/03:30pm 21.2 SSW 1 2 1010.2 - - - - - - - - -
27/03:20pm 21.6 SSW 1 2 1010.2 - - - - - - - - -
27/03:10pm 22.1 SW 1 2 1010.2 - - - - - - - - -
27/03:00pm 22.3 SW 1 3 1010.4 - - - - - - - - -
27/02:50pm 22.2 SW 1 2 1010.4 - - - - - - - - -
27/02:40pm 22.1 SW 1 2 1010.4 - - - - - - - - -
27/02:30pm 22.2 SW 1 2 1010.4 - - - - - - - - -
27/02:20pm 22.4 SW 1 2 1010.4 - - - - - - - - -
27/02:10pm 22.3 CALM 0 1 1010.4 - - - - - - - - -
27/02:00pm 22.1 CALM 0 0 1010.4 - - - - - - - - -
27/01:50pm 22.1 CALM 0 1 1010.5 - - - - - - - - -
27/01:40pm 22.1 CALM 0 0 1010.6 - - - - - - - - -
27/01:30pm 22.1 CALM 0 1 1010.7 - - - - - - - - -
27/01:20pm 22.0 CALM 0 1 1010.8 - - - - - - - - -
27/01:10pm 21.6 CALM 0 0 1010.7 - - - - - - - - -
27/01:00pm 21.4 CALM 0 0 1010.8 - - - - - - - - -
27/12:50pm 21.6 CALM 0 1 1010.8 - - - - - - - - -
27/12:40pm 22.2 CALM 0 1 1010.7 - - - - - - - - -
27/12:30pm 22.3 CALM 0 2 1010.8 - - - - - - - - -
27/12:20pm 22.5 SW 1 2 1010.8 - - - - - - - - -
27/12:10pm 22.6 SW 1 3 1010.9 - - - - - - - - -
27/12:00pm 22.8 SW 2 3 1011.0 - - - - - - - - -
27/11:50am 22.8 SW 2 4 1010.9 - - - - - - - - -
27/11:40am 22.4 SW 2 3 1010.9 - - - - - - - - -
27/11:30am 22.1 SW 1 3 1010.9 - - - - - - - - -
27/11:20am 21.8 CALM 0 1 1010.7 - - - - - - - - -
27/11:10am 21.4 SW 1 2 1010.7 - - - - - - - - -
27/11:00am 21.3 SW 2 3 1010.7 - - - - - - - - -
27/10:50am 21.3 SW 2 4 1010.7 - - - - - - - - -
27/10:40am 21.2 SW 2 3 1010.6 - - - - - - - - -
27/10:30am 21.4 SW 2 2 1010.7 - - - - - - - - -
27/10:20am 21.8 CALM 0 1 1010.6 - - - - - - - - -
27/10:10am 21.8 CALM 0 0 1010.4 - - - - - - - - -
27/10:00am 21.1 CALM 0 0 1010.4 - - - - - - - - -
27/09:50am 20.6 CALM 0 1 1010.4 - - - - - - - - -
27/09:40am 20.1 CALM 0 0 1010.4 - - - - - - - - -
27/09:30am 20.0 CALM 0 3 1010.4 - - - - - - - - -
27/09:20am 19.8 CALM 0 2 1010.4 - - - - - - - - -
27/09:10am 20.0 WSW 1 3 1010.5 - - - - - - - - -
27/09:00am 19.6 SW 2 4 1010.3 - - - - - - - - -
27/08:50am 19.6 SW 3 4 1010.2 - - - - - - - - -
27/08:40am 19.8 SW 3 4 1010.1 - - - - - - - - -
27/08:30am 19.2 WSW 3 4 1009.9 - - - - - - - - -
27/08:20am 18.3 WSW 2 3 1009.8 - - - - - - - - -
27/08:10am 18.0 SW 2 3 1009.8 - - - - - - - - -
27/08:00am 18.0 SW 2 3 1009.7 - - - - - - - - -
27/07:50am 18.1 SW 2 3 1009.7 - - - - - - - - -
27/07:40am 18.0 SW 1 2 1009.6 - - - - - - - - -
27/07:30am 18.0 SSW 1 2 1009.6 - - - - - - - - -
27/07:20am 17.8 SSW 1 2 1009.5 - - - - - - - - -
27/07:10am 17.8 SW 1 2 1009.4 - - - - - - - - -
27/07:00am 17.9 SW 1 3 1009.4 - - - - - - - - -
27/06:50am 18.0 SW 3 4 1009.5 - - - - - - - - -
27/06:40am 18.0 SW 3 4 1009.5 - - - - - - - - -
27/06:30am 17.9 SW 2 4 1009.4 - - - - - - - - -
27/06:20am 18.0 SSW 2 3 1009.4 - - - - - - - - -
27/06:10am 18.1 S 2 4 1009.4 - - - - - - - - -
27/06:00am 18.1 SSW 2 4 1009.5 - - - - - - - - -
27/05:50am 18.1 SSW 1 3 1009.5 - - - - - - - - -
27/05:40am 18.1 SSW 1 2 1009.6 - - - - - - - - -
27/05:30am 18.2 SSW 3 5 1009.6 - - - - - - - - -
27/05:20am 18.2 SSW 3 4 1009.8 - - - - - - - - -
27/05:10am 18.2 SSW 2 5 1009.7 - - - - - - - - -
27/05:00am 18.2 SSW 4 7 1009.8 - - - - - - - - -
27/04:50am 18.3 SSW 4 6 1009.9 - - - - - - - - -
27/04:40am 18.3 SSW 4 5 1010.0 - - - - - - - - -
27/04:20am 18.2 SSW 5 7 1010.2 - - - - - - - - -
27/04:10am 18.3 SSW 5 6 1010.3 - - - - - - - - -
27/04:00am 18.3 SSW 6 7 1010.4 - - - - - - - - -
27/03:50am 18.3 SSW 5 6 1010.3 - - - - - - - - -
27/03:40am 18.3 SSW 6 7 1010.4 - - - - - - - - -
27/03:30am 18.4 SSW 5 6 1010.4 - - - - - - - - -
27/03:20am 18.4 SSW 5 7 1010.5 - - - - - - - - -
27/03:10am 18.4 SSW 6 7 1010.6 - - - - - - - - -
27/03:00am 18.3 SSW 5 7 1010.6 - - - - - - - - -
27/02:50am 18.4 SSW 6 7 1010.7 - - - - - - - - -
27/02:40am 18.5 SSW 5 7 1010.7 - - - - - - - - -
27/02:30am 18.5 SSW 6 7 1010.7 - - - - - - - - -
27/02:20am 18.4 SSW 7 9 1010.8 - - - - - - - - -
27/02:10am 18.4 SSW 8 10 1010.8 - - - - - - - - -
27/02:00am 18.5 SSW 8 9 1010.8 - - - - - - - - -
27/01:50am 18.4 SSW 7 8 1010.8 - - - - - - - - -
27/01:40am 18.6 SSW 5 7 1010.9 - - - - - - - - -
27/01:30am 18.6 SSW 5 7 1010.8 - - - - - - - - -
27/01:20am 18.6 SSW 5 6 1010.8 - - - - - - - - -
27/01:10am 18.6 SSW 6 7 1010.8 - - - - - - - - -
 
Date/Time
EDT
Temp

°C
Wind Pressure Rain
since 9am
mm
Weather Cloud Vis
km
Sea
Height
m
Swell
Dir
 
Speed
knots
Gust
knots
hPa Trend Height
m
Period
s
Dir
26/11:50pm 18.5 SW 5 7 1011.0 - - - - - - - - -
26/11:40pm 18.6 SSW 6 7 1011.0 - - - - - - - - -
26/11:30pm 18.7 SSW 5 7 1011.1 - - - - - - - - -
26/11:20pm 18.7 SSW 6 8 1011.2 - - - - - - - - -
26/11:10pm 18.7 SSW 7 9 1011.2 - - - - - - - - -
26/11:00pm 18.8 SSW 7 9 1011.1 - - - - - - - - -
26/10:50pm 18.8 SSW 8 9 1011.0 - - - - - - - - -
26/10:40pm 18.8 SSW 8 9 1011.0 - - - - - - - - -
26/10:30pm 18.9 SSW 9 11 1010.9 - - - - - - - - -
26/10:20pm 18.9 SSW 10 12 1010.7 - - - - - - - - -
26/10:10pm 18.9 SSW 10 12 1010.6 - - - - - - - - -
26/10:00pm 18.8 SSW 10 12 1010.4 - - - - - - - - -
26/09:50pm 18.8 SSW 9 11 1010.2 - - - - - - - - -
26/09:40pm 18.9 SSW 9 11 1010.2 - - - - - - - - -
26/09:30pm 18.8 SSW 10 12 1010.0 - - - - - - - - -
26/09:20pm 18.9 SSW 10 12 1009.9 - - - - - - - - -
26/09:10pm 19.0 SSW 10 11 1009.7 - - - - - - - - -
26/09:00pm 19.1 SSW 11 12 1009.7 - - - - - - - - -
26/08:50pm 19.3 SSW 10 12 1009.6 - - - - - - - - -
26/08:40pm 19.3 SSW 10 12 1009.5 - - - - - - - - -
26/08:30pm 19.3 SSW 11 13 1009.3 - - - - - - - - -
26/08:20pm 19.3 SSW 12 13 1009.2 - - - - - - - - -
26/08:10pm 19.4 SSW 11 13 1009.1 - - - - - - - - -
26/08:00pm 19.4 SSW 11 13 1009.0 - - - - - - - - -
26/07:50pm 19.5 SSW 10 12 1008.9 - - - - - - - - -
26/07:40pm 19.6 SSW 11 13 1008.9 - - - - - - - - -
26/07:30pm 19.6 SSW 12 14 1008.9 - - - - - - - - -
26/07:20pm 19.6 SSW 11 13 1008.9 - - - - - - - - -
26/07:10pm 19.7 SSW 12 13 1008.8 - - - - - - - - -
26/07:00pm 19.8 SSW 12 15 1008.8 - - - - - - - - -
26/06:50pm 19.8 SSW 12 15 1008.8 - - - - - - - - -
26/06:40pm 19.8 SSW 12 15 1008.8 - - - - - - - - -
26/06:30pm 19.8 SSW 10 14 1008.7 - - - - - - - - -
26/06:20pm 19.8 SSW 11 14 1008.7 - - - - - - - - -
26/06:10pm 19.9 SSW 12 14 1008.6 - - - - - - - - -
26/06:00pm 20.1 SSW 12 14 1008.5 - - - - - - - - -
26/05:50pm 20.1 SSW 12 13 1008.4 - - - - - - - - -
26/05:40pm 20.2 SSW 12 13 1008.3 - - - - - - - - -
26/05:30pm 20.2 SSW 11 14 1008.2 - - - - - - - - -
26/05:20pm 20.2 SSW 10 12 1008.2 - - - - - - - - -
26/05:10pm 20.1 SSW 10 13 1008.1 - - - - - - - - -
26/05:00pm 20.2 SW 11 14 1008.1 - - - - - - - - -
26/04:50pm 20.2 SSW 11 13 1008.2 - - - - - - - - -
26/04:40pm 20.1 SSW 13 19 1008.2 - - - - - - - - -
26/04:20pm 20.3 SW 13 16 1008.2 - - - - - - - - -
26/04:10pm 20.3 SSW 13 15 1008.3 - - - - - - - - -
26/04:00pm 20.4 SSW 14 17 1008.4 - - - - - - - - -
26/03:50pm 20.4 SSW 13 15 1008.4 - - - - - - - - -
26/03:40pm 20.4 SSW 14 17 1008.3 - - - - - - - - -
26/03:30pm 20.5 SSW 14 16 1008.3 - - - - - - - - -
26/03:20pm 20.7 SW 14 17 1008.2 - - - - - - - - -
26/03:10pm 20.9 SSW 14 17 1008.4 - - - - - - - - -
26/03:00pm 21.1 SSW 13 16 1008.5 - - - - - - - - -
26/02:50pm 21.3 SSW 12 16 1008.5 - - - - - - - - -
26/02:40pm 21.5 SW 12 16 1008.3 - - - - - - - - -
26/02:30pm 21.5 SW 13 15 1008.3 - - - - - - - - -
26/02:20pm 21.6 SW 14 16 1008.3 - - - - - - - - -
26/02:10pm 21.6 SW 14 17 1008.3 - - - - - - - - -
26/02:00pm 21.6 SW 13 15 1008.4 - - - - - - - - -
26/01:50pm 21.4 SW 12 14 1008.2 - - - - - - - - -
26/01:40pm 21.4 SW 13 16 1008.3 - - - - - - - - -
26/01:30pm 21.5 SW 13 15 1008.4 - - - - - - - - -
26/01:20pm 21.4 SW 13 14 1008.3 - - - - - - - - -
26/01:10pm 21.1 SSW 13 15 1008.4 - - - - - - - - -
26/01:00pm 21.0 SSW 13 15 1008.4 - - - - - - - - -
26/12:50pm 20.8 SW 12 14 1008.4 - - - - - - - - -
26/12:40pm 20.4 SSW 14 17 1008.3 - - - - - - - - -
26/12:30pm 20.1 SW 15 17 1008.3 - - - - - - - - -
26/12:20pm 20.1 SW 14 17 1008.2 - - - - - - - - -
26/12:10pm 20.0 SW 12 15 1008.3 - - - - - - - - -
26/12:00pm 19.8 SW 11 13 1008.3 - - - - - - - - -
26/11:50am 19.7 SW 12 15 1008.3 - - - - - - - - -
26/11:40am 19.5 SW 9 11 1008.2 - - - - - - - - -
26/11:30am 19.4 SW 7 9 1008.1 - - - - - - - - -
26/11:20am 19.3 WSW 6 7 1008.1 - - - - - - - - -
26/11:10am 19.2 SW 7 8 1008.1 - - - - - - - - -
26/11:00am 19.2 WSW 7 9 1008.1 - - - - - - - - -
26/10:50am 19.2 WSW 6 8 1008.1 - - - - - - - - -
26/10:40am 19.1 WSW 6 7 1008.2 - - - - - - - - -
26/10:30am 19.1 WSW 5 7 1008.0 - - - - - - - - -
26/10:20am 19.0 WSW 5 6 1007.9 - - - - - - - - -
26/10:10am 18.8 WSW 4 6 1007.9 - - - - - - - - -
26/10:00am 18.7 WSW 5 6 1007.9 - - - - - - - - -
26/09:50am 18.6 WSW 5 6 1007.8 - - - - - - - - -
26/09:40am 18.7 WSW 3 4 1007.7 - - - - - - - - -
26/09:30am 18.6 W 2 3 1007.7 - - - - - - - - -
26/09:20am 18.5 W 2 3 1007.6 - - - - - - - - -
26/09:10am 18.6 WNW 1 2 1007.4 - - - - - - - - -
26/08:50am 18.5 WNW 2 3 1007.5 - - - - - - - - -
26/08:40am 18.4 NW 2 3 1007.5 - - - - - - - - -
26/08:30am 18.3 NW 2 4 1007.5 - - - - - - - - -
26/08:20am 18.2 NW 3 4 1007.5 - - - - - - - - -
26/08:10am 18.1 NW 4 6 1007.5 - - - - - - - - -
26/08:00am 18.1 NW 5 7 1007.6 - - - - - - - - -
26/07:50am 18.1 N 6 8 1007.5 - - - - - - - - -
26/07:40am 18.1 - 6 7 1007.4 - - - - - - - - -
26/07:30am 18.2 N 7 8 1007.4 - - - - - - - - -
26/07:20am 18.1 N 8 9 1007.3 - - - - - - - - -
26/07:10am 18.1 NNE 8 10 1007.1 - - - - - - - - -
26/07:00am 18.1 NNE 10 11 1006.9 - - - - - - - - -
26/06:50am 18.2 NNE 11 12 1006.9 - - - - - - - - -
26/06:40am 18.2 NNE 11 13 1007.0 - - - - - - - - -
26/06:30am 18.2 NNE 11 12 1007.1 - - - - - - - - -
26/06:20am 18.3 NNE 12 14 1007.2 - - - - - - - - -
26/06:10am 18.4 NNE 13 15 1007.1 - - - - - - - - -
26/06:00am 18.4 NNE 14 17 1007.1 - - - - - - - - -
26/05:50am 18.5 NNE 15 17 1007.0 - - - - - - - - -
26/05:40am 18.5 NNE 16 18 1007.1 - - - - - - - - -
26/05:30am 18.6 NE 17 18 1007.2 - - - - - - - - -
26/05:20am 18.7 NE 16 18 1007.3 - - - - - - - - -
26/05:10am 18.7 NNE 16 19 1007.5 - - - - - - - - -
26/05:00am 18.7 NE 17 19 1007.6 - - - - - - - - -
26/04:50am 18.8 NE 17 19 1007.7 - - - - - - - - -
26/04:40am 18.8 NE 18 19 1008.0 - - - - - - - - -
26/04:30am 18.8 NE 18 20 1008.2 - - - - - - - - -
26/04:20am 18.8 NE 17 20 1008.4 - - - - - - - - -
26/04:10am 18.9 NE 18 20 1008.5 - - - - - - - - -
26/04:00am 19.0 NE 17 20 1008.6 - - - - - - - - -
26/03:50am 19.0 NE 19 23 1008.7 - - - - - - - - -
26/03:40am 19.0 NE 21 24 1008.7 - - - - - - - - -
26/03:30am 19.1 NE 20 24 1008.9 - - - - - - - - -
26/03:20am 19.1 NE 22 25 1008.9 - - - - - - - - -
26/03:10am 19.0 NE 22 25 1009.1 - - - - - - - - -

Other Formats:

Comma delimited format used in spreadsheet applications
http://www.bom.gov.au/fwo/IDV60701/IDV60701.55039.axf

JavaScript Object Notation format (JSON) in row-major order
http://www.bom.gov.au/fwo/IDV60701/IDV60701.55039.json